Weather History for Williamtown, NW

Change the Weather History Date:

Monday, December 9, 2013

  Actual Average Record
Temperature  
Mean Temperature 76 °F -  
Max Temperature 93 °F - - ()
Min Temperature 59 °F - - ()
Cooling Degree Days 11    
Growing Degree Days 26 (Base 50)    
Moisture  
Dew Point 57 °F    
Average Humidity 52    
Maximum Humidity 88    
Minimum Humidity 19    
Precipitation  
Precipitation 0.00 in - - ()
Sea Level Pressure  
Sea Level Pressure 29.74 in    
Wind  
Wind Speed 5 mph ()    
Max Wind Speed 16 mph    
Max Gust Speed -    
Visibility 7.7 miles    
Events      
T = Trace of Precipitation, MM = Missing Value Source: Averaged Metar Reports

Daily Weather History Graph

Daily Weather History Graph

Search for Another Location

Airport:

Trip Planner

Search our weather history database for the weather conditions in past years. The results will help you decide how hot, cold, wet, or windy it might be!

Date:

Astronomy

Dec. 09, 2013 Rise Set
Actual Time 5:37 AM AEDT 7:52 PM AEDT
Civil Twilight 5:09 AM AEDT 8:20 PM AEDT
Nautical Twilight 4:34 AM AEDT 8:55 PM AEDT
Astronomical Twilight 3:56 AM AEDT 9:33 PM AEDT
Moon 12:09 PM AEDT (12/9) 12:10 AM AEDT (12/9)
Length of Visible Light 15h 11m
Length of Day
14h 15m
Waxing Crescent, 43% of the Moon is Illuminated
Dec 9
Waxing Crescent
Dec 10
First Quarter
Dec 17
Full
Dec 26
Last Quarter
Jan 1
New

Hourly Weather History & Observations

Time (AEDT) Temp. Heat Index Dew Point Humidity Pressure Visibility Wind Dir Wind Speed Gust Speed Precip Events Conditions
12:00 AM 69 °F - 55 °F 51% 29.89 in - NE 5.8 mph - -  
12:00 AM 68.0 °F - 55.4 °F 64% 29.89 in 6.2 mi NE 5.8 mph - N/A   Unknown
12:30 AM 68.0 °F - 55.4 °F 64% 29.89 in 6.2 mi NE 5.8 mph - N/A   Unknown
1:00 AM 66.2 °F - 55.4 °F 68% 29.86 in 6.2 mi Calm Calm - N/A   Unknown
1:30 AM 64.4 °F - 55.4 °F 73% 29.86 in 6.2 mi Calm Calm - N/A   Unknown
2:00 AM 63 °F - 56 °F 70% 29.86 in - Calm Calm - -  
2:00 AM 62.6 °F - 55.4 °F 77% 29.86 in 6.2 mi Calm Calm - N/A   Unknown
2:30 AM 62.6 °F - 55.4 °F 77% 29.83 in 6.2 mi NE 1.2 mph - N/A   Unknown
3:00 AM 61 °F - 55 °F 73% 29.85 in - Calm Calm - -  
3:00 AM 60.8 °F - 55.4 °F 82% 29.83 in 6.2 mi Calm Calm - N/A   Unknown
3:30 AM 60.8 °F - 55.4 °F 82% 29.83 in 6.2 mi Calm Calm - N/A   Unknown
4:00 AM 60.8 °F - 55.4 °F 82% 29.83 in 6.2 mi Calm Calm - N/A   Unknown
4:30 AM 60.8 °F - 55.4 °F 82% 29.83 in 6.2 mi Calm Calm - N/A   Unknown
5:00 AM 60 °F - 56 °F 83% 29.84 in - Calm Calm - -  
5:00 AM 60.8 °F - 55.4 °F 82% 29.83 in 6.2 mi Calm Calm - N/A   Unknown
5:30 AM 59.0 °F - 55.4 °F 88% 29.83 in 6.2 mi Calm Calm - N/A   Unknown
6:00 AM 61 °F - 55 °F 76% 29.84 in 16 mi Calm Calm - -   Haze
6:00 AM 60.8 °F - 55.4 °F 82% 29.83 in - Calm Calm - N/A   Clear
6:30 AM 62.6 °F - 57.2 °F 82% 29.83 in - NNE 3.5 mph - N/A   Clear
7:00 AM 64.4 °F - 57.2 °F 77% 29.83 in - Calm Calm - N/A   Clear
7:30 AM 68.0 °F - 55.4 °F 64% 29.83 in - NNE 1.2 mph - N/A   Clear
8:00 AM 70 °F - 56 °F 51% 29.84 in - NNW 5.8 mph - -  
8:00 AM 69.8 °F - 55.4 °F 60% 29.83 in - NNW 5.8 mph - N/A   Clear
8:30 AM 71.6 °F - 55.4 °F 57% 29.83 in - NNW 5.8 mph - N/A   Clear
9:00 AM 74 °F - 58 °F 46% 29.84 in 16 mi North 6.9 mph - -   Haze
9:00 AM 73.4 °F - 57.2 °F 57% 29.83 in - North 6.9 mph - N/A   Clear
9:30 AM 77.0 °F - 57.2 °F 50% 29.83 in - NW 6.9 mph - N/A   Clear
10:00 AM 78.8 °F - 57.2 °F 47% 29.80 in - NW 5.8 mph - N/A   Clear
10:30 AM 82.4 °F 81.7 °F 55.4 °F 39% 29.80 in - North 5.8 mph - N/A   Clear
11:00 AM 85 °F - 54 °F 24% 29.81 in - NNW 5.8 mph - -  
11:00 AM 84.2 °F 82.8 °F 53.6 °F 35% 29.80 in - NNW 5.8 mph - N/A   Clear
11:30 AM 87.8 °F 86.1 °F 55.4 °F 33% 29.77 in - NNW 4.6 mph - N/A   Clear
12:00 PM 88 °F - 55 °F 22% 29.78 in 19 mi NNW 6.9 mph - -   Haze
12:00 PM 87.8 °F 86.1 °F 55.4 °F 33% 29.77 in - NNW 6.9 mph - N/A   Clear
12:30 PM 89.6 °F 88.1 °F 57.2 °F 33% 29.74 in - NNW 5.8 mph - N/A   Clear
1:00 PM 91.4 °F 89.9 °F 57.2 °F 31% 29.74 in - NNW 8.1 mph - N/A   Clear
1:30 PM 91.4 °F 89.9 °F 57.2 °F 31% 29.71 in - North 6.9 mph - N/A   Clear
2:00 PM 92 °F - 55 °F 19% 29.70 in - NE 10.4 mph - -  
2:00 PM 91.4 °F 89.4 °F 55.4 °F 29% 29.68 in - NE 10.4 mph - N/A   Clear
2:30 PM 93.2 °F 91.9 °F 57.2 °F 30% 29.68 in - NNE 9.2 mph - N/A   Clear
3:00 PM 92 °F - 56 °F 20% 29.68 in 12 mi NE 8.1 mph - -   Haze
3:00 PM 93.2 °F 91.3 °F 55.4 °F 28% 29.65 in - NE 8.1 mph - N/A   Clear
3:30 PM 91.4 °F 90.7 °F 59.0 °F 34% 29.65 in - ENE 9.2 mph - N/A   Clear
4:00 PM 93.2 °F 90.8 °F 53.6 °F 26% 29.65 in - East 15.0 mph - N/A   Clear
4:30 PM 91.4 °F 89.9 °F 57.2 °F 31% 29.62 in - East 16.1 mph - N/A   Clear
5:00 PM 90 °F - 61 °F 27% 29.63 in - ENE 11.5 mph - -  
5:00 PM 91.4 °F 91.4 °F 60.8 °F 36% 29.62 in - ENE 11.5 mph - N/A   Clear
5:30 PM 87.8 °F 87.6 °F 60.8 °F 40% 29.62 in - ENE 12.7 mph - N/A   Clear
6:00 PM 86 °F - 62 °F 34% 29.63 in - NE 10.4 mph - -  
6:00 PM 86.0 °F 86.1 °F 60.8 °F 43% 29.62 in - NE 10.4 mph - N/A   Clear
6:30 PM 84.2 °F 84.4 °F 60.8 °F 45% 29.62 in - NE 12.7 mph - N/A   Clear
7:00 PM 84.2 °F 83.5 °F 57.2 °F 40% 29.62 in 6.2 mi NE 11.5 mph - N/A   Scattered Clouds
7:30 PM 82.4 °F 82.5 °F 59.0 °F 45% 29.62 in 6.2 mi NE 10.4 mph - N/A   Unknown
8:00 PM 80 °F - 61 °F 42% 29.62 in - NE 11.5 mph - -  
8:00 PM 80.6 °F 81.5 °F 60.8 °F 51% 29.59 in 6.2 mi NE 11.5 mph - N/A   Unknown
8:30 PM 80.6 °F 81.5 °F 60.8 °F 51% 29.62 in 6.2 mi NE 9.2 mph - N/A   Unknown
9:00 PM 80 °F - 62 °F 44% 29.62 in - NE 10.4 mph - -  
9:00 PM 80.6 °F 81.8 °F 62.6 °F 54% 29.62 in 6.2 mi NE 10.4 mph - N/A   Unknown
9:30 PM 80.6 °F 81.8 °F 62.6 °F 54% 29.62 in 6.2 mi NNE 12.7 mph - N/A   Unknown
10:00 PM 80.6 °F 81.8 °F 62.6 °F 54% 29.62 in 6.2 mi NNE 8.1 mph - N/A   Scattered Clouds
10:30 PM 80.6 °F 81.8 °F 62.6 °F 54% 29.62 in 6.2 mi North 8.1 mph - N/A   Mostly Cloudy
11:00 PM 80 °F - 62 °F 45% 29.63 in - North 3.5 mph - -  
11:00 PM 80.6 °F 81.8 °F 62.6 °F 54% 29.62 in 6.2 mi North 3.5 mph - N/A   Scattered Clouds
11:30 PM 78.8 °F - 62.6 °F 57% 29.62 in 6.2 mi North 5.8 mph - N/A   Scattered Clouds